Location: Peebles
(55.6412°N, 3.1714°W)
Time: 14:35:51
(UTC+01:00)

CHARLIE (NANOAVIONICS) - Pass Details

Date: 07 July 2022
Orbit: 506 x 524 km, 97.4° (Epoch: 16 August)

Event Time Altitude Azimuth Distance (km) Brightness Sun altitude
Rises 23:18:11 0° 213° (SSW) 2,658 ? -7.8°
Reaches altitude 10° 23:21:08 10° 239° (WSW) 1,775 ? -8.0°
Maximum altitude 23:23:16 14° 273° (W) 1,520 ? -8.1°
Drops below altitude 10° 23:25:25 10° 307° (NW) 1,781 ? -8.3°
Sets 23:28:23 0° 332° (NNW) 2,674 ? -8.5°
